Terug naar catalogus

CZ-2C DEB

ActiefPO
NORAD 39626·DEBRIS·🇨🇳 China

Gelanceerd Mar 31, 2014 vanaf Jiuquan Satellite Launch Center

Loading…

Volgende Passages (komende 24 uur)

TLE

VersSource: Space-Track

Epoch: Sep 14, 2026, 10:05 UTC

1 39626U 14014C   26257.42072959  .00013388  00000-0  10080-2 0  9990
2 39626  98.2369 245.7897 0042700  27.3154 333.0301 15.01914382663554

Volg CZ-2C DEB in realtime met AllMySat

Download on the App Store